Regional Weather Roundup
Issued by NWS

Home | Current Version | Previous Version | Graphics & Text | Print | Product List | Glossary On
Versions: 1 2 3 4 5 6 7 8 9 10 11 12 13 14 15 16 17 18 19 20 21 22 23 24 25 26 27 28 29 30 31 32 33 34 35 36 37 38 39 40 41 42 43 44 45 46 47 48 49 50
000
ASUS44 KMEG 252010
RWRTN
TENNESSEE HOURLY STATE WEATHER ROUNDUP
NATIONAL WEATHER SERVICE MEMPHIS TN
300 PM CDT SAT MAR 25 2017

TNZ002-004-019-021-049-052-054-088>092-252100-
WEST TENNESSEE

CITY           SKY/WX    TMP DP  RH WIND       PRES   REMARKS
MEMPHIS INTL   CLOUDY    68  59  73 S15G25    29.90F
NWS MEMPHIS      N/A     67 N/A N/A MISG        N/A
JACKSON        CLOUDY    66  57  72 S14G23    29.93F
DYERSBURG      CLOUDY    64  59  82 S10G16    29.91F
SOMERVILLE     CLOUDY    64  57  77 S10G17    29.92F
BOLIVAR        PTSUNNY   64  57  77 SE10G21   29.94F
PARIS          PTSUNNY   61  55  82 S17       29.95F
HUNTINGDON     PTSUNNY   64  59  82 S15G24    29.94F
SAVANNAH       MOSUNNY   64  59  82 S13       29.97F
$$

TNZ008-025-027-028-033-062-065-066-252100-
NORTH MIDDLE TENNESSEE

CITY           SKY/WX    TMP DP  RH WIND       PRES   REMARKS
NASHVILLE      CLOUDY    75  54  47 S20G26    30.01F
PORTLAND       CLOUDY    73  54  49 S16       30.01F
CLARKSVILLE    CLOUDY    69  51  52 S15G24    29.98S
SMYRNA         CLOUDY    74  55  51 S14G23    30.02F
COOKEVILLE     PTSUNNY   73  52  46 S9        30.05F
GALLATIN       PTSUNNY   73  54  49 S10G22    30.04F
CROSSVILLE     PTSUNNY   69  49  48 SE12G23   30.11F
$$

TNZ061-075-076-078-094-096-097-252100-
SOUTH MIDDLE TENNESSEE

CITY           SKY/WX    TMP DP  RH WIND       PRES   REMARKS
FAYETTEVILLE   CLOUDY    63  54  72 W25G37    30.06R
TULLAHOMA      PTSUNNY   72  48  43 S14       30.05F
WINCHESTER     MOSUNNY   73  54  49 S16       30.05F
MCMINNVILLE    MOSUNNY   73  54  49 S9        30.05F
COLUMBIA       PTSUNNY   68  63  83 S13       30.01S
SHELBYVILLE    PTSUNNY   73  57  56 SE13      30.03F
$$

TNZ017-018-042-046-047-252100-
NORTHEAST TENNESSEE

CITY           SKY/WX    TMP DP  RH WIND       PRES   REMARKS
TRI CITIES     PTSUNNY   74  48  39 CALM      30.14F
ELIZABETHTON   MOSUNNY   75  46  35 W12       30.13F
$$

TNZ012-013-036-069-073-074-252100-
CENTRAL EAST TENNESSEE

CITY           SKY/WX    TMP DP  RH WIND       PRES   REMARKS
KNOXVILLE      PTSUNNY   73  48  41 SW8       30.11F
OAK RIDGE      MOSUNNY   76  47  35 S12G17    30.12F
DOWNTOWN KNOXV SUNNY     77  50  38 S8        30.11F
GATLINBURG     SUNNY     75  46  35 E10       30.11F
MORRISTOWN     SUNNY     75  50  41 SW8       30.12F
JACKSBORO      MOSUNNY   73  50  43 S9        30.13F
$$

TNZ083-085-099-252100-
SOUTHEAST TENNESSEE

CITY           SKY/WX    TMP DP  RH WIND       PRES   REMARKS
CHATTANOOGA    PTSUNNY   77  49  37 SE16G24   30.07F
$$

SKY/WX REPORTED AS FAIR MEANS FEW OR NO CLOUDS BELOW
12 THOUSAND FEET.





USA.gov is the U.S. government's official web portal to all federal, state and local government web resources and services.